This is the latest recevied weather packets stored in our database for station/object W4BOD. If no packets are shown the sender has not sent any weather packets the latest 10 day(s).
| Time | Temp. | Humidity | Pressure | Rain* | Wind** | Luminosity | Snow |
|---|---|---|---|---|---|---|---|
| 1777509199 | 19.44° C | 72% | 1013.1 hPa | 0 mm | - | 3 W/m² | - |
| 1777508896 | 19.44° C | 71% | 1013.1 hPa | 0 mm | - | 5 W/m² | - |
| 1777508592 | 19.44° C | 70% | 1012.8 hPa | 0 mm | - | 9 W/m² | - |
| 1777508290 | 20° C | 70% | 1012.9 hPa | 0 mm | - | 12 W/m² | - |
| 1777507987 | 20° C | 71% | 1012.9 hPa | 0 mm | - | 18 W/m² | - |
| 1777507684 | 20° C | 72% | 1012.8 hPa | 0 mm | - | 22 W/m² | - |
| 1777507381 | 20° C | 70% | 1012.9 hPa | 0 mm | - | 30 W/m² | - |
| 1777507078 | 20° C | 70% | 1012.8 hPa | 0 mm | - | 39 W/m² | - |
| 1777506776 | 20° C | 71% | 1012.5 hPa | 0 mm | - | 45 W/m² | - |
| 1777506471 | 20° C | 69% | 1012.6 hPa | 0 mm | - | 44 W/m² | - |
| 1777506167 | 20.56° C | 69% | 1012.5 hPa | 0 mm | - | 44 W/m² | - |
| 1777505863 | 20.56° C | 67% | 1012.6 hPa | 0 mm | - | 52 W/m² | - |
| 1777505560 | 20.56° C | 67% | 1012.5 hPa | 0 mm | - | 52 W/m² | - |
| 1777505256 | 20.56° C | 70% | 1012.4 hPa | 0 mm | - | 60 W/m² | - |
| 1777504953 | 21.11° C | 69% | 1012.4 hPa | 0 mm | - | 67 W/m² | - |
| 1777504650 | 21.11° C | 68% | 1012.5 hPa | 0 mm | - | 84 W/m² | - |
| 1777504348 | 21.67° C | 67% | 1012.3 hPa | 0 mm | - | 98 W/m² | - |
| 1777504047 | 21.11° C | 67% | 1012.4 hPa | 0 mm | - | 118 W/m² | - |
| 1777503744 | 21.11° C | 67% | 1012.4 hPa | 0 mm | - | 139 W/m² | - |
| 1777503441 | 21.67° C | 68% | 1012.3 hPa | 0 mm | - | 126 W/m² | - |
| 1777503136 | 21.11° C | 69% | 1012.4 hPa | 0 mm | - | 154 W/m² | - |
| 1777502835 | 20.56° C | 70% | 1012.3 hPa | 0 mm | - | 82 W/m² | - |
| 1777502531 | 20.56° C | 70% | 1012.4 hPa | 0 mm | - | 84 W/m² | - |
| 1777502229 | 20.56° C | 69% | 1012.7 hPa | 0 mm | - | 69 W/m² | - |
| 1777501926 | 21.11° C | 69% | 1012.8 hPa | 0 mm | - | 84 W/m² | - |
* Rain latest hour (hover to see other rain measurements)
** Current wind speed in m/s (hover to see current wind gust speed)